Weather History for Beaufort, NC

Change the Weather History Date:

Saturday, August 2, 2014

  Actual Average Record
Temperature  
Mean Temperature 76 °F -  
Max Temperature 78 °F 87 °F 95 °F (1978)
Min Temperature 73 °F 72 °F 61 °F (1966)
Cooling Degree Days 10    
Growing Degree Days 26 (Base 50)    
Moisture  
Dew Point 73 °F    
Average Humidity 92    
Maximum Humidity 100    
Minimum Humidity 82    
Precipitation  
Precipitation 0.95 in - - ()
Sea Level Pressure  
Sea Level Pressure 30.08 in    
Wind  
Wind Speed 5 mph (SE)    
Max Wind Speed 12 mph    
Max Gust Speed 20 mph    
Visibility 7 miles    
Events Rain    
Averages and records for this station are not official NWS values.
T = Trace of Precipitation, MM = Missing Value Source: NWS Daily Summary

Daily Weather History Graph

Daily Weather History Graph

Search for Another Location

Airport:

Trip Planner

Search our weather history database for the weather conditions in past years. The results will help you decide how hot, cold, wet, or windy it might be!

Date:

Astronomy

Aug. 02, 2014 Rise Set
Actual Time 6:17 AM EDT 8:07 PM EDT
Civil Twilight 5:49 AM EDT 8:35 PM EDT
Nautical Twilight 5:16 AM EDT 9:08 PM EDT
Astronomical Twilight 4:40 AM EDT 9:44 PM EDT
Moon 12:19 PM EDT (8/2) 11:43 PM EDT (8/2)
Length of Visible Light 14h 45m
Length of Day
13h 50m
Waxing Crescent, 36% of the Moon is Illuminated
Aug 2
Waxing Crescent
Aug 3
First Quarter
Aug 10
Full
Aug 17
Last Quarter
Aug 25
New

Hourly Weather History & Observations

Time (EDT) Temp. Dew Point Humidity Pressure Visibility Wind Dir Wind Speed Gust Speed Precip Events Conditions
12:58 AM 77.0 °F 73.9 °F 90% 30.08 in 10.0 mi SSE 3.5 mph - N/A   Clear
1:46 AM 78.1 °F 75.0 °F 90% 30.07 in 10.0 mi SSE 8.1 mph - N/A   Mostly Cloudy
2:34 AM 77.0 °F 75.0 °F 94% 30.06 in 10.0 mi SSE 4.6 mph - N/A   Overcast
2:58 AM 77.0 °F 73.9 °F 90% 30.07 in 6.0 mi South 11.5 mph - 0.02 in Rain Light Rain
3:58 AM 73.9 °F 72.0 °F 93% 30.04 in 10.0 mi ESE 4.6 mph - 0.09 in Rain Light Rain
4:58 AM 75.0 °F 73.0 °F 94% 30.05 in 10.0 mi SSE 3.5 mph - 0.00 in   Mostly Cloudy
6:38 AM 75.0 °F 73.0 °F 94% 30.07 in 1.8 mi SW 4.6 mph - 0.18 in Rain Heavy Rain
6:47 AM 73.9 °F 73.9 °F 100% 30.07 in 3.0 mi SSW 3.5 mph - 0.21 in Rain Rain
6:58 AM 73.9 °F 73.0 °F 97% 30.07 in 3.0 mi SE 3.5 mph - 0.24 in Rain Heavy Rain
7:58 AM 75.0 °F 73.9 °F 96% 30.09 in 3.0 mi Calm Calm - 0.14 in Rain Rain
8:12 AM 75.0 °F 73.9 °F 96% 30.10 in 3.0 mi Calm Calm - 0.04 in Rain Heavy Rain
8:26 AM 75.0 °F 75.0 °F 100% 30.10 in 4.0 mi Calm Calm - 0.07 in Rain Rain
8:35 AM 75.0 °F 73.9 °F 96% 30.10 in 4.0 mi ESE 4.6 mph - 0.08 in Rain Rain
8:58 AM 75.9 °F 73.9 °F 94% 30.11 in 4.0 mi SE 6.9 mph - 0.13 in Rain Rain
9:31 AM 75.9 °F 73.9 °F 94% 30.10 in 3.0 mi SSE 4.6 mph - 0.09 in Rain Heavy Rain
10:10 AM 75.9 °F 73.9 °F 94% 30.11 in 2.5 mi SSE 5.8 mph - 0.05 in Rain Heavy Rain
10:19 AM 75.9 °F 73.9 °F 94% 30.11 in 3.0 mi SSE 5.8 mph - 0.08 in Rain Heavy Rain
10:58 AM 75.9 °F 73.0 °F 91% 30.12 in 5.0 mi SSE 9.2 mph - 0.17 in Rain Rain
11:58 AM 75.9 °F 72.0 °F 87% 30.12 in 10.0 mi SSE 10.4 mph 19.6 mph 0.02 in Rain Light Rain
12:58 PM 73.9 °F 71.1 °F 91% 30.12 in 5.0 mi SSE 5.8 mph - 0.07 in Rain Rain
1:58 PM 75.0 °F 71.1 °F 87% 30.09 in 9.0 mi ESE 4.6 mph - 0.04 in Rain Light Rain
2:58 PM 75.0 °F 72.0 °F 90% 30.06 in 9.0 mi SSE 3.5 mph - 0.00 in Rain Light Rain
3:58 PM 77.0 °F 71.1 °F 82% 30.07 in 10.0 mi Calm Calm - 0.00 in   Scattered Clouds
4:58 PM 77.0 °F 72.0 °F 84% 30.08 in 10.0 mi ENE 3.5 mph - 0.00 in Rain Light Rain
5:35 PM 75.9 °F 73.0 °F 91% 30.09 in 10.0 mi East 3.5 mph - 0.00 in   Mostly Cloudy
5:58 PM 75.9 °F 73.0 °F 91% 30.09 in 9.0 mi East 3.5 mph - 0.01 in Rain Light Rain
6:58 PM 75.0 °F 73.0 °F 94% 30.07 in 10.0 mi Calm Calm - 0.00 in Rain Light Rain
7:33 PM 75.0 °F 73.0 °F 94% 30.07 in 10.0 mi NE 5.8 mph - 0.01 in Rain Light Rain
7:58 PM 75.0 °F 72.0 °F 90% 30.07 in 10.0 mi NNE 4.6 mph - 0.01 in Rain Light Rain
8:25 PM 73.9 °F 72.0 °F 93% 30.06 in 10.0 mi ENE 4.6 mph - 0.00 in   Scattered Clouds
8:58 PM 73.9 °F 72.0 °F 93% 30.05 in 10.0 mi ENE 4.6 mph - 0.00 in   Clear
9:58 PM 75.0 °F 73.0 °F 94% 30.09 in 10.0 mi Calm Calm - N/A   Clear
10:58 PM 75.0 °F 73.0 °F 94% 30.09 in 10.0 mi ESE 3.5 mph - N/A   Mostly Cloudy
11:58 PM 78.1 °F 75.0 °F 90% 30.09 in 10.0 mi SSW 6.9 mph - 0.01 in Rain Light Rain